Regional Weather Roundup
Issued by NWS Raleigh/Durham, NC

Home | Current Version | Previous Version | Text Only | Print | Product List | Glossary On
Versions: 1 2 3 4 5 6 7 8 9 10 11 12 13 14 15 16 17 18 19 20 21 22 23 24 25 26 27 28 29 30 31 32 33 34 35 36 37 38 39 40 41 42 43 44 45 46 47 48 49 50
000
ASUS42 KRAH 080704
RWRRAH
NORTH CAROLINA WEATHER ROUNDUP
NATIONAL WEATHER SERVICE RALEIGH NC
300 AM EDT WED JUL 08 2015

NOTE: "FAIR" INDICATES FEW OR NO CLOUDS BELOW 12,000 FEET WITH NO
SIGNIFICANT WEATHER AND/OR OBSTRUCTIONS TO VISIBILITY.

NCZ001-053-055-056-065-067-080800-
WESTERN NORTH CAROLINA

CITY           SKY/WX    TMP DP  RH WIND       PRES   REMARKS
ASHEVILLE      MOCLDY    67  63  87 CALM      30.20F
JEFFERSON      CLOUDY    73  57  57 SW6       30.22F
HICKORY        PTCLDY    73  66  78 CALM      30.12S
RUTHERFORDTON  NOT AVBL
MOUNT AIRY     MOCLDY    73  70  91 CALM      30.13S
$$

NCZ021-022-025-041-071-084-088-080800-
CENTRAL NORTH CAROLINA

CITY           SKY/WX    TMP DP  RH WIND       PRES   REMARKS
CHARLOTTE      CLOUDY    78  68  71 SW6       30.11F
GREENSBORO     PTCLDY    76  67  73 SW8       30.09F
WINSTON-SALEM  CLEAR     77  66  68 SW3       30.10F
RALEIGH-DURHAM MOCLDY    77  72  84 SW8       30.09F
FORT BRAGG     PTCLDY    76  71  83 SW5       30.09F
FAYETTEVILLE   PTCLDY    75  71  87 S9        30.10F
$$

NCZ011-015-027-028-043-044-047-080-103-080800-
NORTHEASTERN NORTH CAROLINA

CITY           SKY/WX    TMP DP  RH WIND       PRES   REMARKS
ROANOKE RAPIDS FAIR      73  72  94 S6        30.07F
ROCKY MT-WILSO PTCLDY    76  72  87 S7        30.09F
WASHINGTON     CLEAR     76  72  89 SW6       30.11F
ELIZABETH CITY NOT AVBL
MANTEO         CLEAR     77  74  91 SW10      30.11S
CAPE HATTERAS  CLEAR     77  75  93 SW9       30.12F
$$

NCZ078-087-090-091-093-098-101-080800-
SOUTHEASTERN NORTH CAROLINA

CITY           SKY/WX    TMP DP  RH WIND       PRES   REMARKS
LUMBERTON      PTCLDY    75  72  90 S3        30.11F
GOLDSBORO      PTCLDY    76  74  92 S5        30.09F
KINSTON        PTCLDY    76  73  90 S8        30.12S
KENANSVILLE    CLEAR     74  72  93 CALM      30.13S
NEW BERN       CLEAR     77  73  87 SW8       30.13F
CHERRY POINT   PTCLDY    79  75  87 SW9       30.13F
BEAUFORT       PTCLDY    79  77  94 SW12      30.12F
JACKSONVILLE   CLEAR     76  72  87 SW5       30.12F
WILMINGTON     CLEAR     78  74  87 SW6       30.13F
$$




USA.gov is the U.S. government's official web portal to all federal, state and local government web resources and services.